WXM80 ListenWXM80 Stop

You find our weather info also at:

UK Metoffice

WeatherCloud

Weather Underground

Northeastern Weather Network

AWEKAS

Citizen Weather Observer Program (CWOP)

HAMweather, WeatherForYou, PWS Weather


Weather Underground History page Text

Daily Summary for December 11, 2016 Units:  English    Metric   Both
« Previous Day
Next Day »
Daily Weekly Monthly Yearly Custom
  High: Low: Average:
Temperature: 37.4 °F 29.6 °F 32.5 °F
Dew Point: 31.1 °F 19.9 °F 23.9 °F
Humidity: 94 % 51 % 71 %
Wind Speed: 7.4 mph 0.0 mph 2.2 mph
Wind Gust: 12.0 mph - -
Wind:- - WSW
Pressure: 30.54 in 30.20 in -
Precipitation: 0.00 in    
Historical Graphs
 
 
Tabular Data for December 11, 2016
Time Temperature Dew Point Pressure Wind Wind Speed Wind Gust Humidity Rainfall Rate (Hourly)
00:00 31.0 °F 23.7 °F 30.43 in WNW 2.0 mph 4.6 mph 74 % 0.00 in
00:05 31.0 °F 23.7 °F 30.42 in West 2.1 mph 7.0 mph 74 % 0.00 in
00:10 31.0 °F 23.4 °F 30.42 in West 1.1 mph 6.9 mph 73 % 0.00 in
00:16 30.9 °F 23.3 °F 30.42 in WNW 1.5 mph 3.5 mph 73 % 0.00 in
00:21 30.8 °F 23.2 °F 30.42 in WNW 4.2 mph 11.5 mph 73 % 0.00 in
00:26 30.8 °F 23.2 °F 30.42 in WSW 2.3 mph 8.1 mph 73 % 0.00 in
00:31 30.8 °F 23.2 °F 30.43 in WNW 4.0 mph 8.1 mph 73 % 0.00 in
00:36 30.8 °F 23.2 °F 30.42 in NW 6.3 mph 10.4 mph 73 % 0.00 in
00:41 30.8 °F 23.2 °F 30.42 in West 3.3 mph 4.6 mph 73 % 0.00 in
00:46 30.8 °F 22.8 °F 30.43 in WNW 2.9 mph 9.0 mph 72 % 0.00 in
00:51 30.8 °F 22.8 °F 30.43 in WNW 3.3 mph 9.0 mph 72 % 0.00 in
00:56 30.8 °F 22.8 °F 30.42 in West 3.5 mph 8.1 mph 72 % 0.00 in
01:01 30.8 °F 22.8 °F 30.43 in WSW 3.7 mph 6.0 mph 72 % 0.00 in
01:06 30.8 °F 22.8 °F 30.43 in WNW 5.1 mph 9.2 mph 72 % 0.00 in
01:12 30.8 °F 22.2 °F 30.43 in WNW 3.6 mph 12.0 mph 70 % 0.00 in
01:17 30.9 °F 22.3 °F 30.43 in WSW 7.4 mph 11.5 mph 70 % 0.00 in
01:22 30.9 °F 22.3 °F 30.43 in WNW 5.3 mph 9.2 mph 70 % 0.00 in
01:27 30.9 °F 22.3 °F 30.43 in West 4.5 mph 8.1 mph 70 % 0.00 in
01:32 31.0 °F 22.4 °F 30.43 in West 5.5 mph 11.5 mph 70 % 0.00 in
01:37 30.9 °F 22.6 °F 30.43 in WNW 4.1 mph 10.0 mph 71 % 0.00 in
01:43 30.9 °F 22.6 °F 30.43 in WNW 4.7 mph 11.5 mph 71 % 0.00 in
01:48 30.8 °F 22.5 °F 30.44 in WNW 4.0 mph 10.4 mph 71 % 0.00 in
01:53 30.8 °F 22.8 °F 30.44 in WSW 4.5 mph 6.0 mph 72 % 0.00 in
01:58 30.8 °F 22.5 °F 30.44 in West 2.0 mph 6.9 mph 71 % 0.00 in
02:03 30.8 °F 22.5 °F 30.44 in WNW 4.3 mph 9.2 mph 71 % 0.00 in
02:08 30.7 °F 22.7 °F 30.45 in West 4.9 mph 9.0 mph 72 % 0.00 in
02:13 30.7 °F 22.4 °F 30.45 in West 3.1 mph 4.6 mph 71 % 0.00 in
02:18 30.7 °F 22.7 °F 30.45 in West 4.5 mph 8.1 mph 72 % 0.00 in
02:23 30.6 °F 22.3 °F 30.45 in WNW 6.0 mph 9.2 mph 71 % 0.00 in
02:28 30.6 °F 22.3 °F 30.45 in NW 5.8 mph 9.0 mph 71 % 0.00 in
02:34 30.5 °F 22.2 °F 30.45 in WNW 2.2 mph 8.1 mph 71 % 0.00 in
02:39 30.5 °F 21.9 °F 30.45 in West 2.5 mph 9.2 mph 70 % 0.00 in
02:44 30.4 °F 21.8 °F 30.44 in NNW 1.9 mph 4.6 mph 70 % 0.00 in
02:49 30.4 °F 21.8 °F 30.44 in West 3.3 mph 9.0 mph 70 % 0.00 in
02:54 30.4 °F 21.8 °F 30.44 in WNW 4.8 mph 8.1 mph 70 % 0.00 in
02:59 30.4 °F 22.1 °F 30.45 in WNW 4.9 mph 11.0 mph 71 % 0.00 in
03:04 30.4 °F 21.8 °F 30.45 in West 4.6 mph 8.1 mph 70 % 0.00 in
03:09 30.4 °F 21.8 °F 30.45 in WNW 5.9 mph 11.5 mph 70 % 0.00 in
03:14 30.4 °F 21.4 °F 30.45 in NW 4.7 mph 4.7 mph 69 % 0.00 in
03:19 30.5 °F 21.5 °F 30.45 in NW 3.7 mph 6.9 mph 69 % 0.00 in
03:25 30.5 °F 21.8 °F 30.45 in WNW 5.0 mph 9.0 mph 70 % 0.00 in
03:29 30.4 °F 21.4 °F 30.45 in West 2.0 mph 8.0 mph 69 % 0.00 in
03:34 30.4 °F 21.8 °F 30.46 in NW 4.6 mph 6.0 mph 70 % 0.00 in
03:40 30.3 °F 21.3 °F 30.45 in WNW 3.0 mph 9.0 mph 69 % 0.00 in
03:45 30.3 °F 21.3 °F 30.45 in WNW 2.0 mph 4.0 mph 69 % 0.00 in
03:49 30.2 °F 21.3 °F 30.45 in WNW 2.0 mph 10.0 mph 69 % 0.00 in
03:54 30.2 °F 21.2 °F 30.45 in WNW 2.0 mph 8.0 mph 69 % 0.00 in
04:00 30.1 °F 20.8 °F 30.45 in WNW 2.5 mph 3.5 mph 68 % 0.00 in
04:05 30.1 °F 21.2 °F 30.45 in NW 2.0 mph 6.0 mph 69 % 0.00 in
04:10 30.1 °F 21.1 °F 30.45 in NW 3.0 mph 9.0 mph 69 % 0.00 in
04:14 30.0 °F 21.1 °F 30.45 in WNW 5.0 mph 9.0 mph 69 % 0.00 in
04:19 29.9 °F 21.0 °F 30.46 in WNW 2.0 mph 10.0 mph 69 % 0.00 in
04:25 29.9 °F 20.9 °F 30.45 in WNW 3.0 mph 8.0 mph 69 % 0.00 in
04:30 29.8 °F 20.9 °F 30.46 in WNW 5.0 mph 10.0 mph 69 % 0.00 in
04:34 29.7 °F 21.1 °F 30.46 in WSW 5.2 mph 11.5 mph 70 % 0.00 in
04:40 29.7 °F 21.1 °F 30.46 in WNW 5.0 mph 10.0 mph 70 % 0.00 in
04:45 29.7 °F 21.4 °F 30.46 in WNW 5.0 mph 12.0 mph 71 % 0.00 in
04:49 29.7 °F 21.4 °F 30.47 in WNW 3.2 mph 10.4 mph 71 % 0.00 in
04:55 29.7 °F 21.4 °F 30.47 in WNW 6.0 mph 9.0 mph 71 % 0.00 in
05:00 29.7 °F 21.1 °F 30.46 in West 3.4 mph 8.1 mph 70 % 0.00 in
05:05 29.7 °F 21.1 °F 30.46 in West 2.8 mph 6.9 mph 70 % 0.00 in
05:10 29.7 °F 20.8 °F 30.47 in NW 3.1 mph 6.0 mph 69 % 0.00 in
05:15 29.6 °F 20.3 °F 30.47 in West 4.0 mph 8.1 mph 68 % 0.00 in
05:20 29.6 °F 20.0 °F 30.47 in NW 2.6 mph 4.6 mph 67 % 0.00 in
05:25 29.7 °F 20.4 °F 30.47 in NW 2.7 mph 6.9 mph 68 % 0.00 in
05:30 29.7 °F 20.4 °F 30.47 in West 1.7 mph 3.5 mph 68 % 0.00 in
05:35 29.7 °F 20.1 °F 30.47 in WNW 2.3 mph 6.9 mph 67 % 0.00 in
05:40 29.7 °F 20.4 °F 30.47 in NNW 1.3 mph 5.8 mph 68 % 0.00 in
05:45 29.8 °F 20.5 °F 30.48 in NW 4.9 mph 6.0 mph 68 % 0.00 in
05:51 29.8 °F 20.5 °F 30.48 in West 1.8 mph 3.5 mph 68 % 0.00 in
05:56 29.9 °F 20.6 °F 30.49 in WSW 2.8 mph 5.0 mph 68 % 0.00 in
06:01 29.9 °F 20.6 °F 30.48 in WNW 4.6 mph 10.4 mph 68 % 0.00 in
06:06 29.9 °F 20.6 °F 30.48 in WNW 5.0 mph 5.0 mph 68 % 0.00 in
06:11 30.0 °F 20.7 °F 30.49 in NW 2.3 mph 5.8 mph 68 % 0.00 in
06:16 30.0 °F 20.4 °F 30.49 in NW 4.4 mph 9.2 mph 67 % 0.00 in
06:21 30.0 °F 20.0 °F 30.49 in North 7.2 mph 9.2 mph 66 % 0.00 in
06:26 30.1 °F 20.1 °F 30.49 in NW 2.8 mph 9.2 mph 66 % 0.00 in
06:31 30.1 °F 20.5 °F 30.49 in NNW 2.5 mph 3.5 mph 67 % 0.00 in
06:36 30.1 °F 20.5 °F 30.49 in NW 2.5 mph 6.9 mph 67 % 0.00 in
06:41 30.1 °F 20.5 °F 30.50 in NW 2.5 mph 3.5 mph 67 % 0.00 in
06:47 30.1 °F 20.1 °F 30.50 in NW 5.1 mph 9.2 mph 66 % 0.00 in
06:52 30.2 °F 20.2 °F 30.50 in WNW 4.4 mph 9.2 mph 66 % 0.00 in
06:53 30.2 °F 20.2 °F 30.50 in West 4.4 mph 12.0 mph 66 % 0.00 in
06:58 30.2 °F 20.6 °F 30.50 in WNW 3.7 mph 6.9 mph 67 % 0.00 in
07:03 30.2 °F 20.6 °F 30.50 in NW 3.4 mph 5.0 mph 67 % 0.00 in
07:08 30.2 °F 20.6 °F 30.50 in NW 1.6 mph 3.5 mph 67 % 0.00 in
07:13 30.2 °F 20.6 °F 30.50 in NNW 1.2 mph 3.5 mph 67 % 0.00 in
07:18 30.2 °F 20.6 °F 30.50 in NW 1.4 mph 4.6 mph 67 % 0.00 in
07:23 30.2 °F 20.6 °F 30.50 in West 1.3 mph 2.3 mph 67 % 0.00 in
07:28 30.2 °F 20.9 °F 30.50 in WNW 3.0 mph 3.5 mph 68 % 0.00 in
07:33 30.2 °F 20.9 °F 30.50 in WNW 0.7 mph 3.5 mph 68 % 0.00 in
07:39 30.2 °F 20.9 °F 30.51 in WNW 1.0 mph 4.0 mph 68 % 0.00 in
07:44 30.2 °F 20.9 °F 30.51 in WNW 2.3 mph 5.8 mph 68 % 0.00 in
07:49 30.3 °F 21.0 °F 30.51 in WNW 0.1 mph 1.2 mph 68 % 0.00 in
07:54 30.3 °F 21.0 °F 30.51 in WNW 1.6 mph 3.5 mph 68 % 0.00 in
07:59 30.4 °F 21.1 °F 30.52 in WNW 1.4 mph 2.3 mph 68 % 0.00 in
08:04 30.5 °F 21.2 °F 30.51 in West 1.6 mph 3.0 mph 68 % 0.00 in
08:09 30.5 °F 21.2 °F 30.51 in West 1.5 mph 3.5 mph 68 % 0.00 in
08:14 30.5 °F 21.2 °F 30.52 in West 0.8 mph 1.0 mph 68 % 0.00 in
08:19 30.6 °F 21.6 °F 30.52 in West 0.4 mph 1.2 mph 69 % 0.00 in
08:24 30.7 °F 22.1 °F 30.53 in West 0.3 mph 2.3 mph 70 % 0.00 in
08:29 30.7 °F 22.1 °F 30.53 in West 2.0 mph 4.0 mph 70 % 0.00 in
08:35 30.7 °F 22.4 °F 30.53 in WSW 2.0 mph 5.0 mph 71 % 0.00 in
08:39 30.8 °F 22.2 °F 30.53 in WSW 1.0 mph 2.0 mph 70 % 0.00 in
08:44 30.8 °F 22.5 °F 30.53 in WSW 1.0 mph 4.0 mph 71 % 0.00 in
08:50 30.9 °F 22.3 °F 30.53 in WSW 2.0 mph 3.0 mph 70 % 0.00 in
08:54 31.0 °F 22.4 °F 30.53 in WSW 2.0 mph 5.0 mph 70 % 0.00 in
09:00 31.1 °F 22.5 °F 30.54 in SW 3.1 mph 3.5 mph 70 % 0.00 in
09:05 31.2 °F 22.2 °F 30.54 in SW 2.7 mph 4.6 mph 69 % 0.00 in
09:10 31.4 °F 22.4 °F 30.53 in SSW 0.6 mph 3.5 mph 69 % 0.00 in
09:15 31.5 °F 22.5 °F 30.53 in SW 0.8 mph 1.2 mph 69 % 0.00 in
09:20 31.6 °F 22.6 °F 30.54 in WSW 2.8 mph 4.0 mph 69 % 0.00 in
09:25 31.8 °F 22.4 °F 30.53 in SSW 1.3 mph 4.0 mph 68 % 0.00 in
09:30 32.1 °F 22.7 °F 30.53 in WSW 3.6 mph 4.0 mph 68 % 0.00 in
09:35 32.3 °F 22.6 °F 30.54 in WSW 3.5 mph 4.6 mph 67 % 0.00 in
09:40 32.5 °F 21.7 °F 30.54 in WSW 0.3 mph 3.5 mph 64 % 0.00 in
09:45 32.9 °F 22.4 °F 30.54 in SW 1.6 mph 1.6 mph 65 % 0.00 in
09:51 33.2 °F 22.3 °F 30.54 in West 1.2 mph 5.8 mph 64 % 0.00 in
09:56 33.5 °F 22.2 °F 30.54 in WSW 3.0 mph 3.5 mph 63 % 0.00 in
10:01 33.8 °F 22.1 °F 30.54 in WSW 4.1 mph 5.0 mph 62 % 0.00 in
10:06 33.8 °F 22.1 °F 30.54 in West 4.7 mph 6.0 mph 62 % 0.00 in
10:11 33.8 °F 21.8 °F 30.54 in WSW 0.3 mph 1.2 mph 61 % 0.00 in
10:16 33.8 °F 22.1 °F 30.54 in West 1.4 mph 3.5 mph 62 % 0.00 in
10:21 33.8 °F 22.1 °F 30.54 in West 0.6 mph 3.5 mph 62 % 0.00 in
10:26 33.8 °F 22.5 °F 30.54 in West 0.1 mph 2.3 mph 63 % 0.00 in
10:31 33.8 °F 22.5 °F 30.53 in West 2.8 mph 4.6 mph 63 % 0.00 in
10:36 33.9 °F 22.6 °F 30.53 in West 2.5 mph 5.0 mph 63 % 0.00 in
10:42 33.9 °F 22.2 °F 30.52 in Calm   2.3 mph 62 % 0.00 in
10:47 33.9 °F 21.9 °F 30.52 in West 0.8 mph 3.5 mph 61 % 0.00 in
10:52 34.0 °F 22.3 °F 30.52 in SSW 0.6 mph 3.0 mph 62 % 0.00 in
10:57 34.1 °F 21.3 °F 30.52 in SSW 3.2 mph 4.6 mph 59 % 0.00 in
11:02 34.1 °F 21.3 °F 30.52 in SSW 1.6 mph 3.5 mph 59 % 0.00 in
11:07 34.2 °F 21.4 °F 30.51 in South 2.6 mph 4.6 mph 59 % 0.00 in
11:12 34.3 °F 21.4 °F 30.51 in SSW 1.0 mph 3.5 mph 59 % 0.00 in
11:17 34.6 °F 21.7 °F 30.50 in NW 4.8 mph 5.8 mph 59 % 0.00 in
11:22 34.9 °F 20.4 °F 30.50 in South 1.6 mph 3.0 mph 55 % 0.00 in
11:27 35.3 °F 20.3 °F 30.50 in WSW 2.7 mph 3.5 mph 54 % 0.00 in
11:32 35.4 °F 19.9 °F 30.50 in WSW 0.7 mph 3.0 mph 53 % 0.00 in
11:38 35.6 °F 20.6 °F 30.49 in SW 4.3 mph 9.2 mph 54 % 0.00 in
11:43 35.7 °F 20.2 °F 30.49 in WSW 1.9 mph 5.8 mph 53 % 0.00 in
11:48 35.7 °F 20.2 °F 30.49 in SW 2.0 mph 3.5 mph 53 % 0.00 in
11:53 35.7 °F 20.7 °F 30.49 in WSW 2.5 mph 5.0 mph 54 % 0.00 in
11:58 35.9 °F 20.4 °F 30.48 in West 1.2 mph 4.6 mph 53 % 0.00 in
12:03 36.0 °F 20.5 °F 30.48 in SSW 4.4 mph 5.8 mph 53 % 0.00 in
12:08 36.2 °F 20.7 °F 30.48 in SSW 1.1 mph 3.5 mph 53 % 0.00 in
12:13 36.3 °F 21.2 °F 30.47 in SW 3.9 mph 11.0 mph 54 % 0.00 in
12:18 36.5 °F 21.0 °F 30.47 in SSW 2.4 mph 4.0 mph 53 % 0.00 in
12:23 36.7 °F 21.2 °F 30.47 in SW 5.3 mph 6.0 mph 53 % 0.00 in
12:28 37.0 °F 21.0 °F 30.46 in SSE 3.2 mph 4.6 mph 52 % 0.00 in
12:33 37.2 °F 20.7 °F 30.44 in SE 1.6 mph 4.6 mph 51 % 0.00 in
12:38 37.3 °F 21.3 °F 30.43 in WSW 3.0 mph 5.8 mph 52 % 0.00 in
12:44 37.4 °F 21.4 °F 30.43 in South 1.4 mph 3.5 mph 52 % 0.00 in
12:49 37.4 °F 21.8 °F 30.43 in South 1.8 mph 5.8 mph 53 % 0.00 in
12:54 37.3 °F 21.3 °F 30.44 in SSW 2.3 mph 3.5 mph 52 % 0.00 in
12:59 37.4 °F 22.3 °F 30.43 in SSW 2.4 mph 4.0 mph 54 % 0.00 in
13:04 37.3 °F 21.3 °F 30.43 in SSE 2.2 mph 3.5 mph 52 % 0.00 in
13:09 37.0 °F 21.0 °F 30.43 in SSE 1.1 mph 3.5 mph 52 % 0.00 in
13:14 36.8 °F 21.7 °F 30.42 in East 1.6 mph 5.8 mph 54 % 0.00 in
13:19 36.8 °F 22.1 °F 30.41 in East 1.3 mph 3.5 mph 55 % 0.00 in
13:24 36.8 °F 21.7 °F 30.41 in SSE 3.5 mph 6.9 mph 54 % 0.00 in
13:29 36.7 °F 20.7 °F 30.41 in SSW 1.4 mph 3.5 mph 52 % 0.00 in
13:34 36.6 °F 21.1 °F 30.41 in South 3.2 mph 6.0 mph 53 % 0.00 in
13:39 36.6 °F 21.6 °F 30.41 in South 2.0 mph 7.0 mph 54 % 0.00 in
13:44 36.6 °F 21.5 °F 30.41 in SSE 1.0 mph 4.0 mph 54 % 0.00 in
13:49 36.6 °F 21.9 °F 30.41 in South 5.0 mph 8.0 mph 55 % 0.00 in
13:54 36.7 °F 22.0 °F 30.42 in SSW 3.0 mph 5.0 mph 55 % 0.00 in
14:00 36.8 °F 22.1 °F 30.42 in South 2.6 mph 6.0 mph 55 % 0.00 in
14:05 36.8 °F 21.7 °F 30.42 in South 1.6 mph 5.8 mph 54 % 0.00 in
14:15 36.8 °F 22.6 °F 30.42 in SSW 2.9 mph 4.6 mph 56 % 0.00 in
14:20 36.8 °F 22.6 °F 30.42 in SSW 4.6 mph 7.0 mph 56 % 0.00 in
14:25 36.7 °F 21.6 °F 30.42 in SW 1.6 mph 4.6 mph 54 % 0.00 in
14:26 36.7 °F 21.2 °F 30.42 in SW 1.1 mph 2.3 mph 53 % 0.00 in
14:31 36.6 °F 20.6 °F 30.42 in SSW 1.5 mph 3.0 mph 52 % 0.00 in
14:33 36.6 °F 21.1 °F 30.42 in South 3.8 mph 5.8 mph 53 % 0.00 in
14:38 36.5 °F 21.0 °F 30.42 in South 1.2 mph 3.5 mph 53 % 0.00 in
14:43 36.4 °F 21.3 °F 30.42 in SSW 1.9 mph 3.5 mph 54 % 0.00 in
14:48 36.3 °F 21.7 °F 30.42 in SSE 0.8 mph 3.5 mph 55 % 0.00 in
14:53 36.2 °F 22.4 °F 30.42 in SW 2.3 mph 3.5 mph 57 % 0.00 in
14:59 36.1 °F 21.9 °F 30.42 in SSW 0.9 mph 3.5 mph 56 % 0.00 in
15:04 36.0 °F 22.2 °F 30.42 in South 1.0 mph 3.5 mph 57 % 0.00 in
15:09 35.9 °F 22.5 °F 30.42 in South 1.8 mph 3.5 mph 58 % 0.00 in
15:14 35.8 °F 22.9 °F 30.41 in South 3.3 mph 5.8 mph 59 % 0.00 in
15:19 35.7 °F 23.2 °F 30.41 in SSW 0.2 mph 2.0 mph 60 % 0.00 in
15:24 35.7 °F 23.2 °F 30.41 in SSE 0.5 mph 2.3 mph 60 % 0.00 in
15:29 35.7 °F 23.6 °F 30.41 in South 3.1 mph 3.5 mph 61 % 0.00 in
15:34 35.7 °F 23.2 °F 30.41 in SSW 0.2 mph 3.5 mph 60 % 0.00 in
15:39 35.6 °F 23.5 °F 30.41 in SSW 2.4 mph 3.5 mph 61 % 0.00 in
15:44 35.5 °F 23.4 °F 30.41 in SW 3.6 mph 5.0 mph 61 % 0.00 in
15:49 35.4 °F 23.3 °F 30.41 in SSW 5.0 mph 8.0 mph 61 % 0.00 in
15:54 35.3 °F 23.2 °F 30.41 in SSW 2.0 mph 7.0 mph 61 % 0.00 in
15:59 35.2 °F 23.5 °F 30.41 in Calm   2.3 mph 62 % 0.00 in
16:04 35.1 °F 23.4 °F 30.41 in WSW 3.0 mph 6.0 mph 62 % 0.00 in
16:09 35.0 °F 23.3 °F 30.41 in SSW 7.0 mph 9.0 mph 62 % 0.00 in
16:14 34.9 °F 23.6 °F 30.41 in SW 4.1 mph 5.0 mph 63 % 0.00 in
16:19 34.8 °F 23.5 °F 30.42 in SW 6.0 mph 12.0 mph 63 % 0.00 in
16:24 34.7 °F 24.1 °F 30.41 in SW 6.0 mph 10.0 mph 65 % 0.00 in
16:29 34.6 °F 24.4 °F 30.42 in SW 1.5 mph 4.6 mph 66 % 0.00 in
16:34 34.5 °F 24.7 °F 30.41 in SW 1.0 mph 4.0 mph 67 % 0.00 in
16:39 34.4 °F 24.6 °F 30.41 in SSW 3.0 mph 6.0 mph 67 % 0.00 in
16:44 34.3 °F 24.5 °F 30.41 in SW 1.2 mph 4.6 mph 67 % 0.00 in
16:49 34.2 °F 24.7 °F 30.41 in SW 2.0 mph 6.0 mph 68 % 0.00 in
16:54 34.2 °F 24.7 °F 30.40 in SSW 1.0 mph 4.0 mph 68 % 0.00 in
16:59 34.1 °F 24.6 °F 30.40 in SW 2.4 mph 3.5 mph 68 % 0.00 in
17:04 34.0 °F 24.9 °F 30.40 in SW 2.0 mph 8.0 mph 69 % 0.00 in
17:09 34.0 °F 24.9 °F 30.41 in SW 2.0 mph 6.0 mph 69 % 0.00 in
17:14 33.9 °F 25.5 °F 30.40 in SW 2.5 mph 4.0 mph 71 % 0.00 in
17:19 33.9 °F 25.5 °F 30.41 in SSW 2.0 mph 6.0 mph 71 % 0.00 in
17:24 33.8 °F 25.7 °F 30.41 in SW 1.0 mph 9.0 mph 72 % 0.00 in
17:29 33.7 °F 26.0 °F 30.41 in SW 2.4 mph 5.0 mph 73 % 0.00 in
17:34 33.7 °F 26.3 °F 30.41 in SW 2.0 mph 6.0 mph 74 % 0.00 in
17:39 33.6 °F 26.5 °F 30.41 in SW 3.0 mph 8.0 mph 75 % 0.00 in
17:44 33.4 °F 26.6 °F 30.41 in SSW 2.7 mph 4.6 mph 76 % 0.00 in
17:49 33.4 °F 26.9 °F 30.41 in SW 3.0 mph 8.0 mph 77 % 0.00 in
17:55 33.2 °F 27.4 °F 30.41 in SW 2.6 mph 4.6 mph 79 % 0.00 in
18:00 33.1 °F 27.6 °F 30.41 in SW 1.1 mph 4.6 mph 80 % 0.00 in
18:05 33.0 °F 28.1 °F 30.41 in WSW 3.5 mph 4.6 mph 82 % 0.00 in
18:10 32.8 °F 28.2 °F 30.41 in WSW 0.7 mph 3.5 mph 83 % 0.00 in
18:15 32.7 °F 28.1 °F 30.40 in WSW 1.0 mph 2.3 mph 83 % 0.00 in
18:20 32.6 °F 28.3 °F 30.40 in SW 2.8 mph 3.5 mph 84 % 0.00 in
18:25 32.5 °F 28.2 °F 30.40 in SW 0.4 mph 1.2 mph 84 % 0.00 in
18:30 32.4 °F 28.4 °F 30.40 in Calm   1.2 mph 85 % 0.00 in
18:35 32.3 °F 28.3 °F 30.40 in Calm     85 % 0.00 in
18:40 32.3 °F 28.6 °F 30.40 in Calm   1.2 mph 86 % 0.00 in
18:46 32.2 °F 28.5 °F 30.39 in SW 2.0 mph 3.5 mph 86 % 0.00 in
18:51 32.1 °F 28.4 °F 30.39 in SW 0.1 mph 2.3 mph 86 % 0.00 in
18:56 32.1 °F 28.7 °F 30.39 in SW 0.6 mph 3.5 mph 87 % 0.00 in
19:01 32.0 °F 28.6 °F 30.39 in SW 1.2 mph 2.3 mph 87 % 0.00 in
19:06 32.0 °F 28.8 °F 30.39 in SW 1.9 mph 3.5 mph 88 % 0.00 in
19:11 31.9 °F 28.8 °F 30.38 in Calm     88 % 0.00 in
19:16 31.9 °F 28.8 °F 30.38 in SW 1.0 mph 2.3 mph 88 % 0.00 in
19:21 31.9 °F 28.8 °F 30.38 in SW 0.2 mph 2.3 mph 88 % 0.00 in
19:26 31.9 °F 28.8 °F 30.38 in Calm     88 % 0.00 in
19:31 31.9 °F 28.8 °F 30.37 in SW 0.4 mph 3.5 mph 88 % 0.00 in
19:37 31.8 °F 28.9 °F 30.37 in SW 0.4 mph 2.3 mph 89 % 0.00 in
19:42 31.8 °F 28.9 °F 30.37 in Calm   1.2 mph 89 % 0.00 in
19:47 31.8 °F 28.9 °F 30.37 in Calm     89 % 0.00 in
19:52 31.8 °F 28.9 °F 30.36 in Calm     89 % 0.00 in
19:57 31.8 °F 28.9 °F 30.36 in Calm     89 % 0.00 in
20:02 31.8 °F 28.9 °F 30.36 in Calm     89 % 0.00 in
20:07 31.8 °F 28.9 °F 30.35 in Calm     89 % 0.00 in
20:12 31.7 °F 28.8 °F 30.34 in SW 0.1 mph 1.0 mph 89 % 0.00 in
20:17 31.7 °F 29.1 °F 30.34 in Calm   1.2 mph 90 % 0.00 in
20:22 31.7 °F 29.1 °F 30.34 in SW 0.5 mph 1.2 mph 90 % 0.00 in
20:28 31.7 °F 29.1 °F 30.33 in Calm   1.2 mph 90 % 0.00 in
20:33 31.7 °F 29.1 °F 30.33 in Calm     90 % 0.00 in
20:38 31.6 °F 29.3 °F 30.33 in Calm   1.2 mph 91 % 0.00 in
20:43 31.6 °F 29.3 °F 30.33 in Calm     91 % 0.00 in
20:48 31.6 °F 29.3 °F 30.32 in Calm   1.2 mph 91 % 0.00 in
20:53 31.6 °F 29.3 °F 30.32 in SE 0.9 mph 2.3 mph 91 % 0.00 in
20:58 31.6 °F 29.3 °F 30.31 in SE 0.1 mph 1.0 mph 91 % 0.00 in
21:03 31.6 °F 29.3 °F 30.31 in SE 1.0 mph 2.3 mph 91 % 0.00 in
21:08 31.6 °F 29.5 °F 30.31 in Calm   2.3 mph 92 % 0.00 in
21:13 31.6 °F 29.5 °F 30.31 in SE 1.4 mph 2.3 mph 92 % 0.00 in
21:19 31.6 °F 29.5 °F 30.30 in SE 0.1 mph 1.2 mph 92 % 0.00 in
21:24 31.6 °F 29.5 °F 30.30 in SE 0.3 mph 2.3 mph 92 % 0.00 in
21:29 31.6 °F 29.5 °F 30.30 in SE 0.9 mph 2.3 mph 92 % 0.00 in
21:34 31.6 °F 29.5 °F 30.30 in SE 0.5 mph 1.2 mph 92 % 0.00 in
21:39 31.6 °F 29.5 °F 30.29 in SE 0.5 mph 1.2 mph 92 % 0.00 in
21:44 31.6 °F 29.5 °F 30.29 in ESE 0.1 mph 2.3 mph 92 % 0.00 in
21:49 31.7 °F 29.6 °F 30.30 in Calm     92 % 0.00 in
21:54 31.7 °F 29.9 °F 30.30 in Calm     93 % 0.00 in
21:59 31.7 °F 29.9 °F 30.30 in Calm     93 % 0.00 in
22:04 31.7 °F 29.9 °F 30.30 in ESE 0.1 mph 1.2 mph 93 % 0.00 in
22:09 31.7 °F 29.9 °F 30.29 in ESE 0.3 mph 1.2 mph 93 % 0.00 in
22:14 31.7 °F 29.9 °F 30.29 in Calm   1.0 mph 93 % 0.00 in
22:19 31.7 °F 29.9 °F 30.29 in ESE 0.1 mph 1.0 mph 93 % 0.00 in
22:24 31.7 °F 29.9 °F 30.28 in Calm   2.0 mph 93 % 0.00 in
22:29 31.7 °F 29.9 °F 30.28 in Calm   1.0 mph 93 % 0.00 in
22:34 31.7 °F 29.9 °F 30.28 in ESE 0.1 mph 1.2 mph 93 % 0.00 in
22:39 31.8 °F 30.0 °F 30.28 in Calm   2.0 mph 93 % 0.00 in
22:44 31.8 °F 30.0 °F 30.27 in Calm   2.0 mph 93 % 0.00 in
22:49 31.9 °F 30.1 °F 30.27 in ESE 0.5 mph 1.2 mph 93 % 0.00 in
22:54 31.9 °F 30.1 °F 30.26 in Calm   2.0 mph 93 % 0.00 in
23:00 31.9 °F 30.1 °F 30.26 in ESE 0.2 mph 1.2 mph 93 % 0.00 in
23:05 32.0 °F 30.2 °F 30.25 in ESE 0.2 mph 2.3 mph 93 % 0.00 in
23:10 32.0 °F 30.5 °F 30.25 in ESE 0.6 mph 2.3 mph 94 % 0.00 in
23:15 32.0 °F 30.5 °F 30.24 in ESE 0.4 mph 2.3 mph 94 % 0.00 in
23:20 32.1 °F 30.6 °F 30.24 in ESE 0.3 mph 1.2 mph 94 % 0.00 in
23:25 32.1 °F 30.6 °F 30.23 in SE 0.4 mph 2.0 mph 94 % 0.00 in
23:30 32.3 °F 30.8 °F 30.23 in SE 0.3 mph 2.3 mph 94 % 0.00 in
23:35 32.3 °F 30.8 °F 30.23 in SE 0.5 mph 2.0 mph 94 % 0.00 in
23:40 32.4 °F 30.9 °F 30.22 in SE 0.7 mph 2.3 mph 94 % 0.00 in
23:45 32.5 °F 31.0 °F 30.21 in SE 1.2 mph 1.2 mph 94 % 0.00 in
23:51 32.5 °F 31.0 °F 30.21 in SE 0.2 mph 1.2 mph 94 % 0.00 in
23:56 32.6 °F 31.1 °F 30.20 in SE 0.3 mph 1.2 mph 94 % 0.00 in
Crab Meadow Weather
Compliments of Weather Underground - 3 mb

Script developed by  Jim McMurry - jmcmurry@mwt.net Adapted for the template by  Wim van der Kuil - Leuven-Template.eu

Astronomy: Venus rotates east to west.